Domov               UVHVVR             MKGP            O straneh              
ZDRAVSTVENO VARSTVO RASTLIN
  MREŽA AGROMET. POSTAJ
 ► PROGNOSTIČNA OBVESTILA
AGROMETEOROLOŠKI PODATKI -
ARSO
OBVLADOVANJE TVEGANJ ZARADI
NEUGODNIH VREMENSKIH RAZMER
  ► NARAVNE NESREČE
  ► SUŠA/MOČA
  ► NAMAKANJE
  ► ŽLED (gozdarstvo)
KARTOGRAFSKI PRIKAZI
SPLETNE POVEZAVE
PROJEKTI IN PUBLIKACIJE

AGROMETEOROLOŠKA MREŽA: VREMENSKE POSTAJE IN FENOLOŠKA OPAZOVANJA

Pregled podatkov za lokacijo Kamnik, meteorološka postaja 41388

Pregled senzorjev na lokaciji

ID Ime Zadnja
vrednost
Datum
zadnje
spremembe
Tip
senzorja
4235 Omočenost lista (U) 0 U 25.2.2018 12:30 A730WET
4236 Padavine (mm) 0 mm 25.2.2018 12:30 Generic 0.2 mm
4238 Relativna vlaga 2 m (% RH) 41,51 % RH 25.2.2018 12:30 Generic 0 - 100 %
4237 Temperatura 2 m (°C) -3,88 °C 25.2.2018 12:30 Generic -40 - +60 °C

Pregled podatkov zadnjih 24 ur

Zap.
št.
Datum in čas Kamnik
Omočenost
lista
Padavine Relativna
vlaga
2
m
Temperatura
2
m
1 25.2.2018 12:30 0 0 41,5 -3,9
2 25.2.2018 12:00 0 0 41,6 -4,3
3 25.2.2018 11:30 0 0 42 -4,8
4 25.2.2018 11:00 0 0 43,4 -5,3
5 25.2.2018 10:30 0 0 46 -5,6
6 25.2.2018 10:00 0 0 47,3 -5,8
7 25.2.2018 09:30 0 0 47,9 -5,7
8 25.2.2018 09:00 0 0 50,1 -6,1
9 25.2.2018 08:30 0 0 51,9 -6,3
10 25.2.2018 08:00 0 0 54 -6,6
11 25.2.2018 07:30 0 0 56,3 -6,8
12 25.2.2018 07:00 0 0 56,7 -6,5
13 25.2.2018 06:30 0 0 54,9 -6,1
14 25.2.2018 06:00 0 0 51,1 -5,7
15 25.2.2018 05:30 0 0 50,3 -5,5
16 25.2.2018 05:00 0 0 51,6 -5,6
17 25.2.2018 04:30 0 0 50,4 -5,4
18 25.2.2018 04:00 0 0 50,8 -5,3
19 25.2.2018 03:30 0 0 54,1 -5,2
20 25.2.2018 03:00 0 0 57,2 -5,2
21 25.2.2018 02:30 0 0 58,8 -5
22 25.2.2018 02:00 0 0 61,4 -4,9
23 25.2.2018 01:30 0 0 67,8 -4,6
24 25.2.2018 01:00 0 0 70,5 -4,6
25 25.2.2018 00:30 0 0 69,4 -4,3
26 25.2.2018 00:00 0 0 68,8 -3,9
27 24.2.2018 23:30 0 0 67,5 -3,7
28 24.2.2018 23:00 0 0 66,8 -3,6
29 24.2.2018 22:30 0 0 65,7 -3,4
30 24.2.2018 22:00 0 0 65,2 -3,2
31 24.2.2018 21:30 0 0 65 -3,1
32 24.2.2018 21:00 0 0 65,7 -3
33 24.2.2018 20:30 0 0 66,1 -2,8
34 24.2.2018 20:00 0 0 66,8 -2,5
35 24.2.2018 19:30 0 0 67 -2,1
36 24.2.2018 19:00 0 0 67,9 -1,8
37 24.2.2018 18:30 0 0 70,7 -1,5
38 24.2.2018 18:00 0 0 72,9 -1,2
39 24.2.2018 17:30 0 0 72,1 -1
40 24.2.2018 17:00 0 0 72,2 -0,4
41 24.2.2018 16:30 0 0 71,1 0,2
42 24.2.2018 16:00 0 0 69,3 0,4
43 24.2.2018 15:30 0 0 68,5 0,7
44 24.2.2018 15:00 0 0 70,2 0,8
45 24.2.2018 14:30 0 0 70,2 1
46 24.2.2018 14:00 0 0 70,5 1
47 24.2.2018 13:30 0 0 70,8 1,2
48 24.2.2018 13:00 0 0 71,7 0,9
© 2011 Ministrstvo za kmetijstvo, gozdarstvo in prehrano. Vse pravice pridržane.